Location: State Camp
(41.2367°N, 77.7828°W)
Time: 20:24:21
(UTC-04:00)

Amateur Radio Satellites - All Passes

Search period start: 01 August 2014 19:54
Search period end: 02 August 2014 19:54
Location: State Camp, 41.2367°N, 77.7828°W

Satellite Date Start Highest point End Downlink Frequencies (MHz)
Time Altitude Azimuth
SO-67 01 Aug 19:56:24 19:59:44 45° 261° (W) 20:03:06 435.3500 MHz FM
MaSat-1 01 Aug 20:09:29 20:12:58 27° 104° (ESE) 20:16:54 437.345 MHz
RS-15 01 Aug 20:11:51 20:21:15 31° 31° (NNE) 20:30:50 29.354 - 29.394 USB, Beacon 29.352 USB
HO-68 01 Aug 20:32:59 20:39:36 43° 65° (ENE) 20:46:14 435.675 MHz FM
Oscar 11 01 Aug 20:44:34 20:45:25 11° 61° (ENE) 20:46:17 145.825 FM, Beacon 2401.500 USB
UOSAT-12 01 Aug 21:03:23 21:05:51 14° 37° (NE) 21:08:18 437.025 FM, 437.400 FM
SO-50 01 Aug 21:03:56 21:08:43 78° 239° (WSW) 21:13:32 436.795 FM
STRAND 1 01 Aug 21:13:46 21:17:48 24° 295° (WNW) 21:21:49 ?
ISS 01 Aug 21:17:32 21:18:35 11° 129° (SE) 21:19:39 145.800 FM
UKube-1 01 Aug 21:35:55 21:40:16 78° 75° (ENE) 21:44:39 145.840 MHz, 145.915 MHz
MaSat-1 01 Aug 21:46:15 21:50:07 32° 306° (NW) 21:54:29 437.345 MHz
Oscar 11 01 Aug 22:16:41 22:20:58 76° 258° (WSW) 22:25:18 145.825 FM, Beacon 2401.500 USB
HO-68 01 Aug 22:20:46 22:27:19 38° 262° (W) 22:33:54 435.675 MHz FM
RS-15 01 Aug 22:24:14 22:35:21 86° 58° (ENE) 22:46:52 29.354 - 29.394 USB, Beacon 29.352 USB
UOSAT-12 01 Aug 22:42:02 22:46:48 78° 56° (ENE) 22:51:28 437.025 FM, 437.400 FM
FUNcube-1 01 Aug 22:49:44 22:54:01 90° 79° (E) 22:58:15 145.950 - 145.970 MHz USB
ISS 01 Aug 22:51:30 22:54:50 83° 325° (NW) 22:58:11 145.800 FM
PCSat 01 Aug 23:17:13 23:21:16 22° 106° (ESE) 23:25:19 145.825 MHz
UOSAT-12 02 Aug 00:24:31 00:26:16 12° 253° (WSW) 00:28:01 437.025 FM, 437.400 FM
Sapphire 02 Aug 00:25:50 00:31:13 80° 117° (ESE) 00:36:39 437.095 MHz 1200 baud AX-25 AFSK
ISS 02 Aug 00:29:26 00:31:57 20° 343° (NNW) 00:34:30 145.800 FM
RS-15 02 Aug 00:38:10 00:46:22 25° 258° (WSW) 00:54:49 29.354 - 29.394 USB, Beacon 29.352 USB
Oscar 10/S400 02 Aug 00:49:16 01:20:56 64° 181° (S) 10:25:46 145.825 - 145.975 CW/USB, Beacon 145.810 USB
PCSat 02 Aug 00:59:00 01:04:16 53° 304° (NW) 01:09:35 145.825 MHz
AO-40 02 Aug 01:19:32 03:42:12 20° 122° (ESE) 04:54:00 Beacon 2401.320
Uribyol 2 02 Aug 02:03:44 02:05:56 13° 90° (E) 02:08:09 436.500 FM
AO-27 02 Aug 02:05:45 02:08:00 13° 90° (E) 02:10:15 436.795 MHz FM
ISS 02 Aug 02:07:45 02:09:39 14° 4° (N) 02:11:32 145.800 FM
AO-Echo 02 Aug 02:07:58 02:10:21 13° 89° (E) 02:12:41 ?
Sapphire 02 Aug 02:11:36 02:15:18 18° 317° (NW) 02:19:01 437.095 MHz 1200 baud AX-25 AFSK
Oscar 19 02 Aug 02:23:28 02:28:23 43° 99° (E) 02:33:18 437.125 CW, 437.150 USB
OPAL 02 Aug 02:44:53 02:46:17 11° 56° (NE) 02:47:40 ?
PCSat 02 Aug 02:47:41 02:48:59 11° 325° (NW) 02:50:18 145.825 MHz
Gurwin Techsat 1B 02 Aug 02:51:51 02:54:53 15° 90° (E) 02:57:54 435.225 FM
Oscar 16 02 Aug 02:52:28 02:57:40 85° 104° (ESE) 03:02:51 437.025 USB, Beacon 2401.1428
JAS-1B 02 Aug 02:52:53 03:00:47 33° 91° (E) 03:07:36 435.800 - 435.900 CW/SSB
ITAMSAT 1 02 Aug 03:22:27 03:27:38 70° 102° (ESE) 03:32:46 435.822 SSB
Uribyol 2 02 Aug 03:40:48 03:45:58 75° 286° (WNW) 03:51:06 436.500 FM
AO-27 02 Aug 03:42:53 03:48:04 75° 286° (WNW) 03:53:13 436.795 MHz FM
ISS 02 Aug 03:44:16 03:47:12 27° 24° (NNE) 03:50:09 145.800 FM
AO-Echo 02 Aug 03:44:40 03:49:39 66° 286° (WNW) 03:54:26 ?
TMSAT-1 02 Aug 04:02:46 04:07:57 51° 100° (E) 04:13:04 436.925 FM
Oscar 19 02 Aug 04:03:23 04:07:28 24° 295° (WNW) 04:11:33 437.125 CW, 437.150 USB
Uosat F 02 Aug 04:09:23 04:11:01 11° 89° (E) 04:12:39 435.120 FM
PANSAT 02 Aug 04:12:15 04:13:39 12° 174° (S) 04:15:04 not established
OPAL 02 Aug 04:19:25 04:24:22 85° 74° (ENE) 04:29:21 ?
MaSat-1 02 Aug 04:28:39 04:30:43 12° 42° (NE) 04:32:46 437.345 MHz
Gurwin Techsat 1B 02 Aug 04:30:02 04:35:19 66° 287° (WNW) 04:40:33 435.225 FM
AO-7 02 Aug 04:31:31 04:38:16 27° 94° (E) 04:44:57 29.400 - 29.500 MHz
Oscar 16 02 Aug 04:34:00 04:36:18 13° 301° (WNW) 04:38:36 437.025 USB, Beacon 2401.1428
KITSAT 1 02 Aug 04:37:18 04:43:26 25° 104° (ESE) 04:49:35 435.175 FM
JAS-1B 02 Aug 04:42:49 04:51:46 57° 293° (WNW) 04:59:21 435.800 - 435.900 CW/SSB
ITAMSAT 1 02 Aug 05:03:33 05:06:32 16° 300° (WNW) 05:09:30 435.822 SSB
ISS 02 Aug 05:20:48 05:24:03 47° 221° (SW) 05:27:17 145.800 FM
Saudisat 1A 02 Aug 05:40:27 05:41:42 11° 107° (ESE) 05:42:58 436.775 MHz
TMSAT-1 02 Aug 05:43:36 05:47:29 21° 297° (WNW) 05:51:21 436.925 FM
Uosat F 02 Aug 05:45:21 05:50:23 79° 286° (WNW) 05:55:22 435.120 FM
PANSAT 02 Aug 05:51:53 05:53:04 11° 187° (S) 05:54:14 not established
OPAL 02 Aug 06:03:18 06:03:53 10° 269° (W) 06:04:27 ?
MaSat-1 02 Aug 06:03:49 06:09:06 67° 62° (ENE) 06:13:59 437.345 MHz
AO-7 02 Aug 06:23:22 06:31:37 67° 293° (WNW) 06:39:47 29.400 - 29.500 MHz
KITSAT 1 02 Aug 06:29:58 06:38:03 74° 303° (WNW) 06:46:11 435.175 FM
JAS-1B 02 Aug 06:35:53 06:40:02 14° 315° (NW) 06:43:58 435.800 - 435.900 CW/SSB
Hamsat 02 Aug 06:48:52 06:52:59 42° 98° (E) 06:57:06 145.90 MHz
STRAND 1 02 Aug 06:49:50 06:54:54 61° 73° (ENE) 06:59:58 ?
JAS-2 02 Aug 06:52:17 06:57:27 35° 95° (E) 07:02:13 435.800 - 435.900 CW/SSB, 435.910 FM
Saudisat 1A 02 Aug 07:16:15 07:20:39 76° 304° (WNW) 07:25:06 436.775 MHz
SO-67 02 Aug 07:21:56 07:23:18 12° 91° (E) 07:24:40 435.3500 MHz FM
Sapphire 02 Aug 07:32:29 07:34:44 12° 37° (NE) 07:36:58 437.095 MHz 1200 baud AX-25 AFSK
MaSat-1 02 Aug 07:42:43 07:45:43 16° 260° (W) 07:48:37 437.345 MHz
PCSat 02 Aug 08:04:15 08:08:20 21° 45° (NE) 08:12:25 145.825 MHz
AO-7 02 Aug 08:18:23 08:22:51 16° 313° (NW) 08:27:20 29.400 - 29.500 MHz
Hamsat 02 Aug 08:25:43 08:28:38 18° 294° (WNW) 08:31:34 145.90 MHz
KITSAT 1 02 Aug 08:29:00 08:34:56 22° 326° (NNW) 08:40:54 435.175 FM
STRAND 1 02 Aug 08:31:24 08:34:29 16° 269° (W) 08:37:35 ?
JAS-2 02 Aug 08:37:32 08:42:28 30° 296° (WNW) 08:47:01 435.800 - 435.900 CW/SSB, 435.910 FM
SO-67 02 Aug 08:53:19 08:56:33 37° 287° (WNW) 08:59:46 435.3500 MHz FM
Saudisat 1A 02 Aug 08:59:09 09:01:00 12° 323° (NW) 09:02:53 436.775 MHz
Sapphire 02 Aug 09:13:53 09:19:17 63° 58° (ENE) 09:24:39 437.095 MHz 1200 baud AX-25 AFSK
UKube-1 02 Aug 09:26:08 09:28:08 13° 91° (E) 09:30:09 145.840 MHz, 145.915 MHz
PCSat 02 Aug 09:46:51 09:52:15 67° 244° (WSW) 09:57:36 145.825 MHz
HO-68 02 Aug 09:47:45 09:54:30 43° 99° (E) 10:01:11 435.675 MHz FM
Oscar 11 02 Aug 10:05:11 10:08:20 19° 93° (E) 10:11:29 145.825 FM, Beacon 2401.500 USB
KITSAT 1 02 Aug 10:32:32 10:34:13 11° 357° (N) 10:35:55 435.175 FM
FUNcube-1 02 Aug 10:39:54 10:42:37 17° 93° (E) 10:45:21 145.950 - 145.970 MHz USB
Sapphire 02 Aug 10:58:35 11:02:10 18° 255° (WSW) 11:05:43 437.095 MHz 1200 baud AX-25 AFSK
UKube-1 02 Aug 11:00:25 11:04:41 56° 287° (WNW) 11:08:55 145.840 MHz, 145.915 MHz
SO-50 02 Aug 11:19:20 11:23:20 33° 115° (ESE) 11:27:25 436.795 FM
HO-68 02 Aug 11:35:39 11:42:05 38° 297° (WNW) 11:48:29 435.675 MHz FM
Oscar 11 02 Aug 11:40:38 11:44:38 37° 289° (WNW) 11:48:38 145.825 FM, Beacon 2401.500 USB
FUNcube-1 02 Aug 12:15:15 12:19:11 40° 288° (WNW) 12:23:10 145.950 - 145.970 MHz USB
KITSAT 1 02 Aug 12:28:43 12:33:50 18° 28° (NNE) 12:38:55 435.175 FM
Oscar 16 02 Aug 12:32:52 12:35:51 16° 61° (ENE) 12:38:52 437.025 USB, Beacon 2401.1428
RS-15 02 Aug 12:47:19 12:58:04 57° 113° (ESE) 13:08:35 29.354 - 29.394 USB, Beacon 29.352 USB
UOSAT-12 02 Aug 12:54:06 12:57:42 23° 112° (ESE) 13:01:23 437.025 FM, 437.400 FM
SO-50 02 Aug 13:00:00 13:03:55 29° 313° (NW) 13:07:55 436.795 FM
ITAMSAT 1 02 Aug 13:04:12 13:06:52 14° 60° (ENE) 13:09:31 435.822 SSB
AO-Echo 02 Aug 13:20:03 13:23:54 21° 64° (ENE) 13:27:45 ?
Uribyol 2 02 Aug 13:21:00 13:24:50 21° 63° (ENE) 13:28:39 436.500 FM
AO-27 02 Aug 13:23:16 13:27:09 22° 63° (ENE) 13:31:02 436.795 MHz FM
JAS-1B 02 Aug 13:35:21 13:43:21 33° 58° (ENE) 13:51:43 435.800 - 435.900 CW/SSB
Oscar 19 02 Aug 13:40:19 13:45:21 62° 73° (ENE) 13:50:25 437.125 CW, 437.150 USB
TMSAT-1 02 Aug 13:48:24 13:49:45 11° 57° (ENE) 13:51:05 436.925 FM
Saudisat 1A 02 Aug 14:05:04 14:07:12 13° 38° (NE) 14:09:21 436.775 MHz
Oscar 16 02 Aug 14:09:33 14:14:38 68° 258° (WSW) 14:19:46 437.025 USB, Beacon 2401.1428
Gurwin Techsat 1B 02 Aug 14:12:34 14:16:50 25° 65° (ENE) 14:21:06 435.225 FM
KITSAT 1 02 Aug 14:23:19 14:31:15 56° 53° (NE) 14:39:07 435.175 FM
UOSAT-12 02 Aug 14:33:13 14:37:36 42° 309° (NW) 14:42:05 437.025 FM, 437.400 FM
ITAMSAT 1 02 Aug 14:40:28 14:45:41 79° 257° (WSW) 14:50:55 435.822 SSB
AO-Echo 02 Aug 14:57:04 15:02:15 54° 260° (W) 15:07:27 ?
Uribyol 2 02 Aug 14:58:55 15:03:57 50° 260° (W) 15:08:59 436.500 FM
RS-15 02 Aug 15:00:12 15:10:41 46° 316° (NW) 15:21:06 29.354 - 29.394 USB, Beacon 29.352 USB
AO-27 02 Aug 15:01:15 15:06:18 49° 260° (W) 15:11:22 436.795 MHz FM
Uosat F 02 Aug 15:21:55 15:25:17 18° 62° (ENE) 15:28:39 435.120 FM
Oscar 19 02 Aug 15:22:09 15:25:07 15° 269° (W) 15:28:06 437.125 CW, 437.150 USB
TMSAT-1 02 Aug 15:23:29 15:28:47 80° 75° (ENE) 15:34:06 436.925 FM
JAS-1B 02 Aug 15:23:52 15:32:58 71° 258° (WSW) 15:42:55 435.800 - 435.900 CW/SSB
AO-7 02 Aug 15:30:21 15:37:51 39° 60° (ENE) 15:45:21 29.400 - 29.500 MHz
Saudisat 1A 02 Aug 15:43:03 15:47:29 84° 57° (ENE) 15:51:53 436.775 MHz
Gurwin Techsat 1B 02 Aug 15:51:32 15:56:33 42° 262° (W) 16:01:35 435.225 FM
KITSAT 1 02 Aug 16:19:14 16:26:17 35° 252° (WSW) 16:33:19 435.175 FM
OPAL 02 Aug 16:29:54 16:33:51 22° 96° (E) 16:37:48 ?
Uosat F 02 Aug 16:58:40 17:03:37 57° 259° (W) 17:08:35 435.120 FM
JAS-2 02 Aug 17:04:04 17:09:30 22° 61° (ENE) 17:14:36 435.800 - 435.900 CW/SSB, 435.910 FM
TMSAT-1 02 Aug 17:07:09 17:09:18 12° 271° (W) 17:11:27 436.925 FM
RS-15 02 Aug 17:19:00 17:26:49 21° 349° (NNW) 17:34:40 29.354 - 29.394 USB, Beacon 29.352 USB
JAS-1B 02 Aug 17:20:15 17:25:09 15° 278° (W) 17:30:15 435.800 - 435.900 CW/SSB
AO-7 02 Aug 17:22:20 17:30:23 51° 259° (WSW) 17:38:29 29.400 - 29.500 MHz
Hamsat 02 Aug 17:42:33 17:46:11 29° 70° (ENE) 17:49:51 145.90 MHz
OPAL 02 Aug 18:08:03 18:12:54 45° 292° (WNW) 18:17:47 ?
JAS-2 02 Aug 18:46:08 18:53:53 80° 257° (WSW) 19:01:00 435.800 - 435.900 CW/SSB, 435.910 FM
STRAND 1 02 Aug 19:01:24 19:05:09 20° 93° (E) 19:08:52 ?
Hamsat 02 Aug 19:18:52 19:22:10 22° 266° (W) 19:25:30 145.90 MHz
SO-67 02 Aug 19:25:59 19:29:25 65° 76° (ENE) 19:32:52 435.3500 MHz FM
RS-15 02 Aug 19:35:37 19:44:27 26° 25° (NNE) 19:53:25 29.354 - 29.394 USB, Beacon 29.352 USB
